Home > Weather > Aktau > Past weeks

Flag for Kazakhstan Weather for the Past 2 Weeks in Aktau, Kazakhstan

Now
64 °F

Passing clouds.


Feels Like: 64 °F
Forecast: 52 / 63 °F
Wind: 10 mph from Northwest

Location: Aktau

Current Time: May 1, 2016 at 7:47:11 PM

Latest Report: May 1, 2016 at 7:00 PM


Visibility: N/A

Pressure: 29.98 "Hg

Humidity: 60%

Dew Point: 50 °F

Location of AktauLocation

Historic Weather in Aktau — Graph

°F

Aktau Temperature Yesterday

Maximum temperature yesterday: 66 °F (at 5:00 PM)
Minimum temperature yesterday: 54 °F (at 10:30 PM)
Average temperature yesterday: 60 °F

High & Low Weather Summary for the Past Weeks

 TemperatureHumidityPressure
High79 °F (Apr 25, 2:30 PM)94% (Apr 17, 7:30 AM)30.27 "Hg (Apr 17, 7:30 AM)
Low37 °F (Apr 23, 6:30 AM)20% (Apr 21, 12:30 PM)29.65 "Hg (Apr 26, 3:30 AM)
Average59 °F65%29.92 "Hg
* Reported Apr 16 6:00 PM — May 1 6:30 PM, Aktau, Weather by CustomWeather, © 2016

Note: Actual official high and low records may vary slightly from our data, if they occured in-between our weather recording intervals... More about our weather records

Advertising

Aktau Weather History for the Previous 24 Hours

Scroll right to see more
 ConditionsComfort  
Time TempWeatherWind HumidityBarometerVisibility
6:30 PM
Sun, May 1
66 °FSunny.10 mph46%29.98 "Hg10 mi
6:00 PM68 °FSunny.13 mph40%29.98 "Hg10 mi
5:30 PM68 °FSunny.13 mph38%29.98 "Hg10 mi
5:00 PM70 °FSunny.13 mph40%29.95 "Hg10 mi
4:30 PM66 °FSunny.17 mph49%29.98 "Hg10 mi
4:00 PM64 °FPassing clouds.15 mph64%29.95 "HgN/A
3:30 PM66 °FSunny.13 mph64%29.95 "Hg10 mi
3:00 PM66 °FSunny.10 mph64%29.95 "Hg10 mi
2:30 PM68 °FBroken clouds.10 mph60%29.98 "HgN/A
2:00 PM70 °FPassing clouds.10 mph53%29.98 "HgN/A
1:30 PM66 °FPassing clouds.8 mph64%29.98 "HgN/A
1:00 PM66 °FPassing clouds.8 mph64%29.98 "HgN/A
12:00 PM66 °FPassing clouds.8 mph64%29.95 "HgN/A
11:30 AM63 °FSunny.8 mph73%29.98 "Hg10 mi
11:00 AM59 °FSunny.8 mph77%29.95 "Hg10 mi
10:30 AM59 °FSunny.6 mph77%29.95 "Hg10 mi
9:30 AM59 °FBroken clouds.10 mph82%29.95 "HgN/A
8:30 AM57 °FPartly sunny.6 mph82%29.95 "HgN/A
7:30 AM55 °FPartly cloudy.8 mph88%29.95 "HgN/A
7:00 AM52 °FPartly cloudy.6 mph94%29.92 "HgN/A
6:30 AM52 °FFog.8 mph94%29.92 "Hg3 mi
6:00 AM54 °FFog.8 mph88%29.92 "Hg1 mi
5:30 AM50 °FFog.6 mph94%29.92 "Hg3 mi
5:00 AM50 °FFog.6 mph94%29.92 "Hg1 mi
4:30 AM52 °FFog.8 mph88%29.92 "Hg3 mi
4:00 AM50 °FFog.6 mph88%29.92 "Hg1 mi
3:30 AM50 °FFog.6 mph94%29.95 "Hg0 mi
3:00 AM50 °FFog.6 mph88%29.95 "Hg0 mi
2:30 AM52 °FFog.6 mph88%29.95 "Hg0 mi
2:00 AM52 °FClear.6 mph88%29.95 "Hg10 mi
1:30 AM54 °FClear.6 mph82%29.95 "Hg10 mi
1:00 AM54 °FClear.8 mph88%29.95 "Hg10 mi
12:30 AM54 °FClear.8 mph88%29.95 "Hg10 mi
12:00 AM55 °FClear.6 mph82%29.95 "Hg10 mi
11:30 PM
Sat, Apr 30
54 °FClear.3 mph88%29.95 "Hg10 mi
11:00 PM55 °FClear.3 mph82%29.95 "Hg10 mi
10:30 PM54 °FSunny.1 mph82%29.95 "Hg10 mi
10:00 PM55 °FSunny.1 mph82%29.95 "Hg10 mi
9:30 PM55 °FSunny.6 mph82%29.95 "Hg10 mi
9:00 PM57 °FPassing clouds.6 mph77%29.95 "HgN/A
8:30 PM59 °FSunny.6 mph72%29.95 "Hg10 mi
8:00 PM61 °FPartly sunny.6 mph68%29.95 "HgN/A
7:30 PM63 °FBroken clouds.8 mph68%29.95 "HgN/A
7:00 PM63 °FBroken clouds.10 mph68%29.95 "HgN/A
Weather by CustomWeather, © 2016

See weather overviewHow to use our weather pages